Starlink 30374

operational
NORAD ID: 57809 Int'l Des: 2023-138 Owner: SPXS Country: US Constellation: starlink
LEOCIRCULAR

关于 Starlink 30374

正在加载描述...

实时位置

正在加载3D地球...

即将过境

高度历史

Altitude vs Time

uPlot chart will show altitude changes over time

两行轨道根数

1 57809U 23138B 26035.52827845 -.00000013 00000-0 14137-4 0 9998
2 57809 43.0033 56.6069 0001135 273.0648 87.0065 15.02534962133725
Epoch: Feb 4, 2026 • Age: 18 hours

当前状态

高度 560.1 km
速度 7.59 km/s
星下点 29.38°N, 142.4°W
发射日期 Sep 9, 2023
运行时间 2.4 years
类型 internet

技术详情

分类 Payload
质量 730.00 kg
干质量 700.00 kg
总质量 730.00 kg
长度 0.30 m
直径 4.10 m
跨度 29.00 m
形状 Box + pan
制造商 SPXS
平台类型 Starlink V2M
阶段状态 In Orbit
所有者/国家 SPXS/US

大型星座

Loading constellations...